Regional Weather Roundup
Issued by NWS

Home | Current Version | Previous Version | Text Only | Print | Product List | Glossary Off
Versions: 1 2 3 4 5 6 7 8 9 10 11 12 13 14 15 16 17 18 19 20 21 22 23 24 25 26 27 28 29 30 31 32 33 34 35 36 37 38 39 40 41 42 43 44 45 46 47 48 49 50

000
ASUS43 KOAX 280510
RWRNE

WEATHER ROUNDUP FOR NEBRASKA
NATIONAL WEATHER SERVICE OMAHA NE
1200 AM CDT TUE MAR 28 2017

NOTES: SATELLITE DATA IS BEING USED TO AUGMENT CLOUD COVER ABOVE
       12000 FEET.
       "FAIR" INDICATES FEW OR NO CLOUDS BELOW 12,000 FEET WITH NO
       SIGNIFICANT WEATHER AND/OR OBSTRUCTIONS TO VISIBILITY.

  * THESE STATIONS DO NOT REPORT WEATHER SUCH AS RAIN...SNOW OR FOG.

NEZ001>004-019>022-054>056-280600-
NEBRASKA PANHANDLE

CITY           SKY/WX    TMP DP  RH WIND       PRES   REMARKS
SCOTTSBLUFF    LGT RAIN  51  41  68 N10       29.87R
ALLIANCE       CLOUDY    52  35  52 SE8       29.88R
CHADRON        MOCLDY    46  37  71 NE8       29.88R
KIMBALL        RAIN      50  43  76 S15G28    29.89R
SIDNEY         CLOUDY    51  35  54 SE14      29.87R
$$

NEZ057>060-069>072-079>082-280600-
SOUTHWEST NEBRASKA

CITY           SKY/WX    TMP DP  RH WIND       PRES   REMARKS
NORTH PLATTE   CLEAR     47  40  76 SE9       29.93R
IMPERIAL       CLOUDY    50  41  71 SE18G28   29.90R
LEXINGTON      CLOUDY    43  40  89 SE8       29.97R
MCCOOK         CLEAR     46  40  79 E9        29.95R
OGALLALA       PTCLDY    51  42  70 SE15G21   29.89R
$$

NEZ005>010-023>029-035>040-094-280600-
NORTH CENTRAL NEBRASKA

CITY           SKY/WX    TMP DP  RH WIND       PRES   REMARKS
VALENTINE      MOCLDY    50  40  68 SE10      29.94R
AINSWORTH      CLEAR     46  41  84 SE5       29.94S
BROKEN BOW     CLOUDY    44  40  85 SE7       29.96R
O`NEILL        CLOUDY    48  41  76 S5        29.98R
ORD            CLOUDY    45  39  79 SE6       29.97R
THEDFORD       CLEAR     46  42  88 SE9       29.93S
$$

NEZ041-046>049-061>064-073>077-083>087-280600-
SOUTH CENTRAL NEBRASKA

CITY           SKY/WX    TMP DP  RH WIND       PRES   REMARKS
GRAND ISLAND   CLOUDY    38  38 100 S6        30.00R WCI  33
AURORA         CLOUDY    41  39  93 SW5       29.99S
HASTINGS       CLOUDY    42  39  89 S5        30.00R
HEBRON         MOCLDY    41  39  92 CALM      30.01R
HOLDREGE       CLEAR     40  38  94 SE9       29.98S WCI  33
KEARNEY *      CLEAR     39  34  81 SE7       29.99S WCI  34
YORK           CLOUDY    39  37  93 SE7       30.00S WCI  34
$$

NEZ011>018-030>034-042>045-280600-
NORTHEAST NEBRASKA

CITY           SKY/WX    TMP DP  RH WIND       PRES   REMARKS
NORFOLK        CLEAR     39  36  89 SE6       30.00R WCI  35
ALBION         CLOUDY    43  38  85 SE3       30.00R
BLAIR          CLOUDY    42  39  89 NE7       30.01S
FREMONT        CLOUDY    38  38  99 CALM      30.02S
TEKAMAH        CLEAR     37  35  92 CALM      30.03R
WAYNE          CLEAR     39  39  98 E6        30.02S WCI  35
$$

NEZ050>053-065>068-078-088>093-280600-
SOUTHEAST NEBRASKA

CITY           SKY/WX    TMP DP  RH WIND       PRES   REMARKS
LINCOLN        CLOUDY    36  34  92 CALM      30.03S
OMAHA EPPLEY   CLOUDY    40  35  83 NE3       30.03R
BEATRICE       CLOUDY    42  40  92 E3        30.02R
FALLS CITY     CLOUDY    47  42  83 N3        30.01S
NEBRASKA CITY  CLOUDY    46  41  83 CALM      30.02S
PLATTSMOUTH    CLOUDY    48  38  69 E5        30.03R
$$

NEZ044-045-051>053-067-280600-
OMAHA AREA

CITY           SKY/WX    TMP DP  RH WIND       PRES   REMARKS
OMAHA EPPLEY   CLOUDY    40  35  83 NE3       30.03R
BLAIR          CLOUDY    42  39  89 NE7       30.01S
FREMONT        CLOUDY    38  38  99 CALM      30.02S
MILLARD        CLOUDY    50  42  76 CALM      30.02S
OFFUTT AFB     CLOUDY    47  40  75 E5        30.02S
PLATTSMOUTH    CLOUDY    48  38  69 E5        30.03R
WAHOO          FAIR      40  38  94 CALM      30.02R
$$




USA.gov is the U.S. government's official web portal to all federal, state and local government web resources and services.